Natathlon départemental - RHÔNE [2]

Départementale

VENISSIEUX

Du Samedi 15 Mars 2008 au Dimanche 16 Mars 2008

Bassin de 25m

800 Nage Libre Dames

Séries

Nom Année Club Pays Temps Points Niv.
1 BLAIS Laetitia 1995 TRITON CLUB BELLEVILLE FRA 10:14:81 947
2 ALFANI Jennifer 1995 EMS BRON FRA 10:20:13 928
3 BRUN Marie 1995 TRITON CLUB BELLEVILLE FRA 10:46:93 836
4 PERROUD Laurane 1995 TRITON CLUB BELLEVILLE FRA 10:47:02 836
5 MORIN Eva 1995 TRITON CLUB BELLEVILLE FRA 11:29:47 700
6 BONNEFOY Juliette 1995 ND VILLEFRANCHE-EN-BEAUJOLAIS FRA 11:44:58 655
7 LAGRANGE Elodie 1995 CN TARARE FRA 11:49:19 641
8 CLAMARON Alexiane 1995 EMS BRON FRA 11:52:39 632
9 SORIANO Emmanuelle 1995 ASPTT LYON FRA 12:04:01 599
10 FAUTRA Leana 1995 AC DÉCINES FRA 12:05:12 595
11 IMBERLIN Emma 1996 PAYS VIENNOIS NATATION FRA 12:05:60 594
12 GARCIN Sandra 1995 AC DÉCINES FRA 12:10:41 581
13 TOCCO Claire 1996 EMS BRON FRA 12:10:59 580
14 CADET Mélaine 1995 CN TARARE FRA 12:17:10 562
15 NONIUSZ Cyndie 1995 AC DÉCINES FRA 12:22:78 547
16 TRICHARD Camille 1996 TRITON CLUB BELLEVILLE FRA 12:29:91 528
17 GANDREY Lise 1995 TRITON CLUB BELLEVILLE FRA 12:34:43 516
18 PELLETIER Marion 1995 ND VILLEFRANCHE-EN-BEAUJOLAIS FRA 12:36:25 511
19 JARRY Joana 1995 ND VILLEFRANCHE-EN-BEAUJOLAIS FRA 12:38:74 505
20 POLESE Anne 1995 ASPTT LYON FRA 12:40:59 500
21 FLURIAN Solene 1995 AC DÉCINES FRA 12:41:55 497
22 GENTON Amandine 1995 SAL ST-PRIEST NATATION FRA 12:48:90 479
23 ROLLIN Agathe 1995 PAYS VIENNOIS NATATION FRA 12:49:72 476
24 SAHLI Farha 1995 CMO VÉNISSIEUX FRA 12:54:41 465
25 DELLI Sirine 1995 LYON NATATION FRA 12:55:78 461
26 REINA Alessia 1996 LYON NATATION FRA 12:56:91 459
27 VERICEL Lesly 1995 EMS BRON FRA 13:03:37 443
28 MOUSSA Pauline 1996 AQUATIC CLUB FIDESIEN FRA 13:04:93 439
29 WERTS Noemie 1996 RILLIEUX NATATION FRA 13:10:57 425
30 CUNTZ Marine 1995 CHASSIEU NATATION FRA 13:12:51 421
31 NEJJAR Kamélia 1995 VILLEURBANNE NATATION FRA 13:13:70 418
32 VERBRUGGHE Elodie 1995 CMO VÉNISSIEUX FRA 13:14:36 416
33 FOURARI Ambrine 1996 EMS BRON FRA 13:14:76 415
34 ADNI Malika 1995 AC DÉCINES FRA 13:15:19 414
35 MEURRE Oceane 1996 ND VILLEFRANCHE-EN-BEAUJOLAIS FRA 13:16:34 412
36 DEGOUTTE Laurene 1995 CN TARARE FRA 13:16:44 412
37 WALTHER Manon 1995 LYON NATATION FRA 13:17:98 408
38 CHAMBION DIAZ Marie 1996 LYON NATATION FRA 13:19:76 404
39 CABUT Cassandra 1995 LYON NATATION FRA 13:20:36 402
40 PICARD Melanie 1996 CHASSIEU NATATION FRA 13:22:00 399
41 GOURGUES Juliette 1995 AC DÉCINES FRA 13:23:34 396
42 SMAILI Lina 1995 CMO VÉNISSIEUX FRA 13:25:07 392
43 ALARCON Marine 1996 RILLIEUX NATATION FRA 13:26:86 388
44 TOURNADRE Laury 1995 ASPTT LYON FRA 13:36:88 365
45 CATALA Marjorie 1996 SAL ST-PRIEST NATATION FRA 13:38:18 362
46 GALVAGNON Axelle 1996 SAL ST-PRIEST NATATION FRA 13:40:16 358
47 BESLIN Joy 1995 PAYS VIENNOIS NATATION FRA 13:44:39 349
48 BONIN Marie-Sophie 1995 CASCOL NATATION FRA 13:50:44 336
49 LACROIX Léa 1995 ASPTT LYON FRA 13:58:83 318
50 DEWAVRIN Adelaïde 1995 LYON NATATION FRA 14:05:65 304
51 BOLANOS Mailys 1996 PAYS VIENNOIS NATATION FRA 14:08:00 300
52 PEYRUSQUE Estelle 1996 RILLIEUX NATATION FRA 14:09:65 296
53 BOUVIER Anicia 1995 PAYS VIENNOIS NATATION FRA 14:11:28 293
54 FOURY Raphaëlle 1995 CASCOL NATATION FRA 14:17:18 282
55 JALMA Charlène 1996 CMO VÉNISSIEUX FRA 14:17:75 281
56 FELLA Lucile 1996 CMO VÉNISSIEUX FRA 14:26:81 263
57 CHEN Diane 1996 AQUATIC CLUB FIDESIEN FRA 14:47:96 225
58 CLUZEL Marion 1996 RILLIEUX NATATION FRA 14:49:75 222
59 PERNOT Marion 1995 AQUATIC CLUB FIDESIEN FRA 14:55:22 213
60 GELLON Laurine 1995 VILLEURBANNE NATATION FRA 15:50:33 130
61 EL MGHARI Najwa 1996 LYON NATATION FRA 15:53:49 126
62 REZKI Ines 1996 RILLIEUX NATATION FRA 16:28:64 85
63 BIBES Margot 1995 RILLIEUX NATATION FRA - Disq.
64 SALE Léa 1995 AC DÉCINES FRA - Disq.
65 LAMALLE Celine 1996 ND VILLEFRANCHE-EN-BEAUJOLAIS FRA - Disq.
66 RODRIGUEZ Loren 1995 EMS BRON FRA - Disq.
67 LAENNEC Coline 1995 ASPTT LYON FRA - Disq.
68 BONNEAU Mathilde 1996 TRITON CLUB BELLEVILLE FRA - Disq.